Hourly Data Report for September 18, 2013

All times are specified in Local Standard Time (LST). Add 1 hour to adjust for Daylight Saving Time where and when it is observed.

PETAWAWA AWOS 2
ONTARIO

45°57'00.000" N
77°19'00.000" W
130.10 m
6106396
71625
YWA

Related Data

No related data is available for this station

Download Data

Hourly Data (September 2013)
Hourly Data Report for September 18, 2013
Temp Definition
°C
Dew Point Temp Definition
°C
Rel Hum Definition
%
Wind Dir Definition
10's deg

Wind Spd Definition
km/h
Visibility Definition
km
Stn Press Definition
kPa
Hmdx Definition


Wind Chill Definition


Weather Definition


TIME
00:00 4.8 4.6 99 20 4 15.0 100.90      
01:00 4.0 4.0 100 18 4 15.0 100.87      
02:00 2.9 2.8 99   0 15.0 100.86      
03:00 2.5 2.2 98 21 4 15.0 100.84      
04:00 2.2 1.6 96   0 15.0 100.83      
05:00 1.6 1.5 99   0 11.3 100.85      
06:00 1.2 1.2 100 21 4 0.5 100.89      
07:00 3.9 3.9 100   0 2.4 100.90      
08:00 7.8 7.8 100   0 1.9 100.87      
09:00 10.6 9.2 91 9 7 15.0 100.84      
10:00 13.5 9.2 75 8 6 15.0 100.77      
11:00 14.6 9.5 71 8 6 15.0 100.71      
12:00 17.4 10.1 62 8 9 15.0 100.62      
13:00 19.5 10.2 55 9 9 15.0 100.51      
14:00 21.1 6.3 38 19 9 15.0 100.42      
15:00 22.7 7.8 38 23 6 15.0 100.33      
16:00 22.9 7.1 36 16 7 15.0 100.30      
17:00 21.4 6.4 38 17 9 15.0 100.27      
18:00 15.7 8.5 62 18 6 15.0 100.26      
19:00 12.4 10.1 86 20 4 15.0 100.26      
20:00 11.0 8.7 86 20 6 15.0 100.29      
21:00 10.3 7.9 85 25 4 15.0 100.28      
22:00 9.0 7.8 92   0 15.0 100.31      
23:00 7.3 7.2 99   0 15.0 100.34      

Notes on Data Quality.

Legend

  • E = Estimated
  • M = Missing
  • NA = Not Available
  • ‡ = Partner data that is not subject to review by the National Climate Archives
Date modified: